Other Public Products
Issued by NWS Charleston, SC

Current Version | Previous Version | Text Only | Print | Product List | Glossary Off
Versions: 1 2 3 4 5 6 7 8 9 10 11 12 13 14 15 16 17 18 19 20 21 22 23 24 25 26 27 28 29 30 31 32 33 34 35 36 37 38 39 40 41 42 43 44 45 46 47 48 49 50

908
FPUS82 KCHS 260212
OPUCHS

TEST...KCHS/KSAV Gateway Observations...TEST
National Weather Service Charleston SC
1000 PM EDT WED APR 25 2018

NOTE: "fair" indicates few or no clouds below 12,000 feet with no
significant weather and/or obstructions to visibility.

SCZ050-WAZ558-NCZ071-TXZ119-213-PAZ071-DCZ001-FLZ074-172-MI076-
NYZ176-178-MAZ016-IL014-TNZ027-NJZ106-GAZ044-MD014-260300-

...Gateway Observations for Charleston International...

CITY           SKY/WX    TMP DP  RH WIND       PRES   REMARKS
Chas Airport   FAIR      68  56  65 SW6       29.85R
Seattle        PTSUNNY   71  44  37 N12       30.05F
Charlotte      FAIR      63  51  65 NW5       29.86R
Dallas DFW     PTCLDY    54  49  83 W9        30.10S
Dallas Love    MOCLDY    54  50  86 NW6       30.11F
Philladelphia  CLOUDY    62  58  86 N9        29.68R
Wash National  CLOUDY    63  57  81 CALM      29.73S
Baltimore      MOCLDY    58  58 100 W5        29.72R
Miami          FAIR      73  63  70 W10       29.94R
Detroit        FAIR      49  37  63 NE8       29.96R
Newark         CLOUDY    56  55  97 CALM      29.68R FOG
Laguardia      FOG       53  52  96 CALM      29.67S VSB 1/4
J F K          FOG       52  52 100 S3        29.68S VSB 1/4
Boston Logan   LGT RAIN  53  53 100 SE7       29.73F
Ft. Lauderdale FAIR      77  70  79 W6        29.91R
Chicago O`Hare FAIR      42  29  59 NE9       30.04S
Chicago Midway FAIR      42  31  64 NE7       30.05R
Houston Bush   CLOUDY    73  61  65 NW9       29.99R
Houston Hobby  CLOUDY    76  61  59 NW17      29.98R
Nashville      CLOUDY    65  50  58 CALM      29.94F
Atlanta        FAIR      61  49  64 N9        29.92S

$$

GAZ044-118-TXZ119-213-NCZ071-DCZ001-MDZ014-506-PAZ021-071-NJZ106-
NYZ176-178-MAZ106-OHZ011-021-055-MIZ076-KYZ091-ILZ014-INZ047-
MNZ060-ONZ431-260300-

...Gateway Observations for Savannah International...

CITY           SKY/WX    TMP DP  RH WIND       PRES   REMARKS
Savannah Arpt  FAIR      65  55  70 W7        29.89R
Atlanta        FAIR      61  49  64 N9        29.92S
Charlotte      FAIR      63  51  65 NW5       29.86R
Dallas DFW     PTCLDY    54  49  83 W9        30.10S
Houston Bush   CLOUDY    73  61  65 NW9       29.99R
Wash National  CLOUDY    63  57  81 CALM      29.73S
Wash Dulles    MOCLDY    60  55  83 NW10      29.74R
Baltimore      MOCLDY    58  58 100 W5        29.72R
Philadelphia   CLOUDY    62  58  86 N9        29.68R
Newark         CLOUDY    56  55  97 CALM      29.68R FOG
Laguardia      FOG       53  52  96 CALM      29.67S VSB 1/4
J F K          FOG       52  52 100 S3        29.68S VSB 1/4
Boston         LGT RAIN  53  53 100 SE7       29.73F
Pittsburg      MOCLDY    47  40  76 NW12      29.91R
Akron          FAIR      42  36  79 N6        29.94R
Cleveland      MOCLDY    44  39  82 NE12      29.99R
Cincinnati     CLOUDY    55  43  63 NW5       29.93R
Columbus       FAIR      51  43  76 CALM      29.92S
Detroit        FAIR      49  37  63 NE8       29.96R
Chicago O`Hare FAIR      42  29  59 NE9       30.04S
Minneapolis    MOCLDY    54  30  40 W6        30.00F
Indianapolis   FAIR      51  32  48 N16       29.98R
Toronto Canada MOCLDY    39  37  93 NW20      29.80S WCI  30

$$




USA.gov is the U.S. government's official web portal to all federal, state and local government web resources and services.